Location: Bacea
(45.9500°N, 22.6667°E)
Time: 21:22:59
(UTC+00:00)

Cosmos 1892 Rocket - Pass Details

Date: 16 October 2021
Orbit: 605 x 634 km, 82.5° (Epoch: 29 November)

Event Time Altitude Azimuth Distance (km) Brightness Sun altitude
Rises 17:14:59 0° 349° (NNW) 2,940 7.2 -17.0°
Reaches altitude 10° 17:17:15 10° 347° (NNW) 2,024 6.4 -17.4°
Maximum altitude 17:21:43 71° 264° (W) 668 3.8 -18.2°
Drops below altitude 10° 17:26:07 10° 180° (S) 1,994 6.1 -18.9°
Sets 17:28:20 0° 179° (S) 2,891 6.9 -19.3°
